Location: Coye
(49.1423°N, 2.4704°E)
Time: 15:39:36
(UTC+00:00)

Daily predictions for brighter satellites

Satellite Brightness Start Highest point End
(mag) Time Altitude Azimuth Time Altitude Azimuth Time Altitude Azimuth
IRS-1A Rocket 4.4 20:23:40 10° SSE 20:29:18 74° ENE 20:35:05 10° NNW
Okean-O 3.0 20:25:14 10° S 20:29:37 68° WSW 20:34:02 10° NNW
ARGOS Delta rocket 4.5 20:25:42 10° S 20:30:19 59° W 20:35:14 10° NNW
Gbstr 26 Del rocket 3.2 20:27:51 10° WSW 20:32:08 90° SSE 20:37:24 10° ENE
Timation 2 Rocket 4.3 20:26:32 10° S 20:32:27 43° ESE 20:38:11 10° NE
CZ-4C R/B 3.2 20:29:39 10° NNE 20:33:20 55° E 20:36:49 10° S
Cosmos 1125 Rocket 4.4 20:30:07 10° SSE 20:34:43 31° E 20:39:21 10° NE
USA 276 1.9 20:36:33 10° WNW 20:39:29 79° SSW 20:42:30 10° ESE
Cosmos 2084 3.6 20:38:48 10° SSW 20:42:46 46° SE 20:46:35 10° NE
SPOT 3 Rocket 3.9 20:38:56 10° SE 20:43:58 53° ENE 20:49:03 10° N
NOSS 2-2 (E) 2.9 20:47:10 10° SSW 20:50:20 49° SE 20:53:23 10° NE
NOSS 2-2 (C) 2.6 20:47:28 10° SW 20:50:40 79° SE 20:53:49 10° NE
In-Cosmos 22 Rocket 4.3 20:47:09 10° S 20:52:47 63° E 20:58:20 10° NNE
Landsat 4 4.4 20:49:58 11° SE 20:52:53 34° ENE 20:56:02 10° N
Nadezhda 3 Rocket 4.0 20:47:00 10° N 20:53:12 86° E 20:59:21 10° S
BREEZE-M DEB (TANK) 3.3 20:51:24 10° W 20:54:09 67° SSW 21:01:26 10° ESE
Cosmos 1544 Rocket 4.3 20:50:25 10° N 20:54:27 36° ENE 20:58:03 12° SE
NOSS 2-3 (E) 3.2 20:52:55 10° SSW 20:56:29 57° SE 21:00:29 10° NE
Cosmos 1844 4.1 20:51:27 10° SW 20:57:14 71° WNW 21:03:02 10° NNE
Terra 1.8 20:53:06 10° SSE 20:57:49 90° ENE 21:02:35 10° NNW
Meteor 1-21 Rocket 4.4 20:58:44 10° SSW 21:04:16 78° WNW 21:09:50 10° N
USA 305 4.1 21:01:34 10° WNW 21:05:08 36° N 21:08:22 10° ENE
GP-B 4.5 21:02:54 10° NNW 21:07:01 39° W 21:11:07 10° SSW
ATLAS CENTAUR R/B 1.6 21:03:29 10° NW 21:07:24 58° SW 21:10:52 14° SSE
Cosmos 1437 Rocket 3.7 21:07:19 15° SE 21:09:32 26° E 21:12:35 10° NE
Meteor 2-1 Rocket 4.2 21:07:58 10° NNW 21:13:39 89° WSW 21:18:59 11° S
Cosmos 1833 Rocket 2.9 21:08:02 10° NNW 21:13:40 63° ENE 21:18:22 15° SE
NOSS 2-3 (C) 3.1 21:10:37 10° SW 21:14:14 83° SE 21:18:20 10° NE
Cosmos 1455 Rocket 3.7 21:10:40 10° NNW 21:14:58 54° W 21:19:13 10° S
Cosmos 1975 Rocket 3.2 21:14:14 10° SSW 21:18:42 82° W 21:23:12 10° N
Cosmos 1025 Rocket 4.3 21:15:13 10° SW 21:19:14 40° WNW 21:23:16 10° N
Cosmos 44 3.9 21:14:40 10° S 21:19:35 41° ESE 21:24:19 10° NE
Orbus 7S? 4.0 21:17:23 10° WNW 21:19:45 26° SW 21:21:20 16° S
Lacrosse 5 2.5 21:16:45 10° WSW 21:21:45 59° NNW 21:26:46 10° NE
ERS-1 Rocket 3.8 21:18:48 10° S 21:23:37 48° W 21:28:29 10° NNW
Spot 2 Rocket 3.9 21:19:31 10° S 21:24:35 63° WSW 21:29:40 10° NNW
Cosmos 220 Rocket 3.9 21:20:58 10° NNW 21:25:08 86° ENE 21:28:09 18° SSE
Cosmos 2082 Rocket 3.6 21:21:46 10° NNW 21:26:39 29° NE 21:31:31 10° ESE
NOSS 2-2 (D) 3.1 21:24:55 10° SW 21:28:08 67° NW 21:31:17 10° NE
ATLAS 5 CENTAUR R/B 3.4 21:25:21 10° W 21:28:20 28° NNW 21:31:43 10° NNE
USA 307 4.0 21:24:41 10° W 21:28:24 40° N 21:31:57 10° ENE
Cosmos 2218 Rocket 4.3 21:23:42 14° SSE 21:28:46 49° E 21:34:40 10° NNE
Landsat 5 3.9 21:26:43 10° NNE 21:31:00 49° E 21:34:10 17° S
Cosmos 1844 Rocket 4.3 21:28:21 10° WSW 21:33:29 37° NW 21:38:39 10° NNE
Cosmos 2278 Rocket 3.1 21:31:13 17° SSE 21:34:25 29° ESE 21:39:13 10° NE
Cosmos 1606 3.0 21:31:51 10° NNW 21:35:22 57° W 21:38:05 15° S
MetOp-A 3.7 21:35:02 19° SSE 21:38:19 72° ENE 21:42:39 10° N
Cosmos 2298 Rocket 4.1 21:33:31 10° S 21:38:41 58° ESE 21:43:55 10° NNE
Cosmos 2341 Rocket 4.0 21:33:38 11° S 21:39:41 74° E 21:46:01 10° NNE
ULPM Upper Stage 4.5 21:36:17 10° NNW 21:40:06 28° NNE 21:43:53 10° E
Cosmos 614 Rocket 4.0 21:36:05 10° NNW 21:41:10 69° ENE 21:44:35 21° SE
H-2A R/B 4.4 21:44:33 11° E 21:46:48 17° ENE 21:49:18 10° NNE
Cosmos 1869 4.0 21:43:31 10° NNW 21:47:11 46° W 21:50:08 15° SSW
Cosmos 1536 Rocket 3.6 21:47:10 21° S 21:49:54 59° E 21:54:10 10° NNE
CZ-4C R/B 4.1 21:44:01 10° NW 21:49:59 36° NNE 21:57:15 10° E
Ariane Rocket 4.0 21:47:25 11° SSW 21:52:04 40° W 21:56:51 10° NNW
ISS -3.0 21:49:58 10° WNW 21:53:15 53° N 21:56:31 10° E
COSMOS 2406 4.3 21:51:10 10° NNW 21:56:25 37° NE 22:00:48 14° ESE
USA 290 3.7 21:58:15 21° ESE 21:58:15 21° ESE 22:00:41 10° NE
ARIANE 5 R/B 3.1 21:58:54 24° SE 22:01:21 49° ENE 22:05:40 10° N
GENESIS II 4.3 21:58:38 10° NW 22:02:07 52° SW 22:03:31 31° S
Cosmos 1269 Rocket 4.4 21:58:37 10° NNW 22:03:50 54° ENE 22:07:06 22° SE
BREEZE-M DEB (TANK) 3.7 21:53:52 10° WNW 22:04:11 43° SW 22:06:11 25° SSE
ATLAS 3B R/B 3.7 22:01:26 21° SSE 22:04:44 30° ESE 22:11:02 10° NE
Cosmos 1727 Rocket 4.2 21:58:26 10° N 22:04:46 63° ENE 22:08:48 23° SSE
Cosmos 2228 3.4 22:01:22 10° NNW 22:05:29 55° W 22:08:06 21° SSW
Geosat 4.4 22:04:58 10° NNE 22:09:57 65° NW 22:14:54 10° SW
Cosmos 1943 Rocket 2.9 22:08:20 24° SSE 22:10:46 35° ESE 22:15:49 10° NE
USA 276 3.6 22:11:01 10° W 22:13:09 21° SW 22:13:09 21° SW
Cosmos 1821 Rocket 4.1 22:09:49 22° S 22:13:59 65° E 22:20:18 10° NNE
USA 281 4.5 22:10:04 10° ESE 22:15:47 33° NE 22:21:31 10° NNW
Gbstr 26 Del rocket 3.9 22:14:22 10° W 22:19:05 65° N 22:24:58 10° E
Cosmos 2058 4.2 22:19:03 22° ESE 22:20:05 25° E 22:23:28 10° NNE
Cosmos 2150 Rocket 4.3 22:15:00 10° SSW 22:20:23 70° WNW 22:25:51 10° NNE
ALOS 2 3.9 22:19:19 19° ESE 22:21:32 30° ENE 22:25:22 10° N
Cosmos 2084 Rocket 3.4 22:21:34 10° NW 22:25:32 67° NE 22:27:21 30° ESE
Spot 4 4.4 22:23:23 25° SE 22:25:53 48° ENE 22:30:33 10° N
NOSS 3-1 (C) 3.0 22:24:27 12° SSW 22:29:01 75° SE 22:34:58 10° NE
SeaSat 1 3.0 22:26:56 22° ESE 22:29:55 53° NE 22:34:43 10° NNW
Cosmos 1812 2.6 22:32:02 10° N 22:35:34 63° ENE 22:36:28 44° SE
Terra 4.3 22:34:08 10° WSW 22:36:05 12° W 22:38:04 10° WNW
USA 305 3.7 22:34:30 10° WNW 22:37:53 38° N 22:40:35 12° E
Cosmos 1238 Rocket 3.8 22:38:04 10° NNE 22:41:05 29° ENE 22:42:01 26° ESE
Aureole 2 4.1 22:41:11 52° SSW 22:41:51 88° WNW 22:45:15 10° NNE
BREEZE-M R/B 3.8 22:37:54 10° WSW 22:42:15 77° SSE 22:57:03 10° ENE
PSLV R/B 3.8 22:39:32 10° NNE 22:43:32 71° ESE 22:44:50 40° S
Cosmos 1892 Rocket 3.6 22:45:05 37° SSE 22:46:46 69° E 22:51:12 10° NNE
Cosmos 1140 Rocket 3.7 22:47:12 10° NNW 22:52:19 62° ENE 22:54:48 30° SE
MINOTAUR 4 R/B 3.4 22:54:17 10° NNE 22:57:02 72° E 22:57:02 72° E
Cosmos 1833 Rocket 4.2 22:52:41 10° NW 22:57:08 24° WSW 23:00:03 16° SW
Cosmos 2239 Rocket 4.5 22:55:30 27° S 22:59:07 88° W 23:05:25 10° N
SL-08 R/B 4.4 22:57:34 27° S 23:01:07 86° W 23:07:17 10° N
BREEZE-M DEB (TANK) 3.5 22:58:34 10° W 23:01:28 77° SSW 23:09:18 10° ESE
USA 307 3.6 22:58:27 10° WNW 23:02:09 44° NNE 23:05:31 10° E
Cosmos-2242 3.8 23:00:29 10° N 23:04:28 39° ENE 23:05:51 30° ESE
Cosmos 2123 Rocket 4.0 22:58:18 10° N 23:04:37 82° E 23:07:51 31° SSE
CENTAUR R/B 4.4 22:58:22 10° NW 23:05:27 38° NNE 23:13:38 10° E
Lacrosse 5 3.6 23:00:52 10° WNW 23:05:29 34° N 23:10:06 10° ENE
NOSS 3-1 (A) 3.0 23:03:57 30° SSW 23:06:27 68° SE 23:12:22 10° NE
Cosmos 1726 Rocket 4.1 23:03:22 10° NNW 23:07:33 47° W 23:09:06 32° SW
NOSS 8 (F) 4.2 23:05:33 10° NW 23:08:38 81° SW 23:09:06 63° SSE
Cosmos 2082 Rocket 2.3 23:05:35 10° NW 23:11:08 60° WSW 23:13:28 34° S
Cosmos 1515 4.1 23:11:05 10° N 23:14:24 42° ENE 23:14:57 39° ESE
Cosmos 2278 Rocket 2.8 23:12:59 12° SW 23:18:11 54° NW 23:23:46 10° NNE
ULPM Upper Stage 2.7 23:15:31 10° NW 23:19:52 69° SW 23:20:59 47° SSE
Cosmos 2369 Rocket 3.4 23:19:37 23° SE 23:20:59 25° ESE 23:25:30 10° NE
PSLV R/B 4.0 23:17:04 10° NNE 23:21:16 48° E 23:22:20 39° SE
H-2A R/B 2.7 23:20:31 42° SW 23:21:23 52° WSW 23:25:09 10° NNW
Cosmos 489 Rocket 4.4 23:24:24 32° S 23:27:26 74° ESE 23:33:39 10° NNE
ISS -4.0 23:26:49 10° WNW 23:30:09 82° SSW 23:30:09 82° SSW
USA 290 4.2 23:30:56 18° W 23:32:26 25° WNW 23:35:10 10° N
Cosmos 2058 Rocket 3.6 23:29:10 10° NNW 23:33:21 48° W 23:34:37 36° SW
Cosmos 1782 2.6 23:30:05 10° N 23:33:55 84° E 23:34:35 59° SSE
USA 229 DEB 4.0 23:32:18 32° SSE 23:34:18 41° ESE 23:40:30 10° NE
USA 229 4.0 23:32:27 32° SSE 23:34:26 41° ESE 23:40:37 10° NE
Cosmos 1862 4.0 23:35:38 35° ESE 23:36:10 36° E 23:39:43 10° NNE
CRYOSAT 2 4.3 23:31:16 10° N 23:36:10 87° W 23:37:58 40° S
Cosmos 1378 2.8 23:34:46 10° N 23:37:59 65° E 23:38:06 64° E
ARIANE 5 R/B 4.4 23:36:22 17° WSW 23:38:00 21° W 23:41:22 10° NW
Cosmos 482 Debris 4.4 23:33:59 10° W 23:38:32 68° NNW 23:41:51 10° ENE
CZ-4C R/B 3.0 23:32:12 10° NW 23:39:15 90° SW 23:45:35 20° SE
COSMOS 2455 4.1 23:34:23 10° NNW 23:40:02 39° NE 23:45:39 10° ESE
Meteor 2-2 Rocket 4.2 23:35:03 10° N 23:40:48 86° ENE 23:43:24 35° SSE
COSMOS 2406 3.7 23:35:26 10° NW 23:40:50 46° WSW 23:42:50 33° SSW
Cosmos 1934 Rocket 4.2 23:39:12 28° SSW 23:42:38 68° WNW 23:48:50 10° N
Cosmos 2221 3.9 23:41:19 10° N 23:45:06 31° ENE 23:46:52 22° ESE
Cosmos 2285 Rocket 4.1 23:45:26 10° NNW 23:51:54 76° ENE 23:55:34 27° SSE
Cosmos 1943 Rocket 3.1 23:49:48 14° WSW 23:54:23 46° NW 23:59:48 10° NNE
